PulseSat

PulseSat

MOLNIYA 1-87

Last updated on Feb. 16, 2019, 3:05 a.m. UTC

1 22949U 93079A   19046.52152202 -.00000995  00000-0 -28391-1 0  9992
2 22949  63.2827 229.2439 7065586 290.6468  10.5151  2.02882174184582
UTC
Height (km)
Latitude
Longitude
Inclination
Orbital Period

Next 30 passes for location: Hong Kong

Rise time Rise Azimuth (degrees) Set time Set Azimuth (degrees) Duration Max altitude (degrees)

No matching passes for this satellites

PulseSat

PulseSat is the new satellites software and hardware trackering solution by Pulsely.
Satellite Two Line Element Set source: US Air Force Space Command

Download PulseSat for iOS
© 2017 Pulsely Limited